Regional Weather Roundup
Issued by NWS San Angelo, TX

Current Version | Previous Version | Text Only | Print | Product List | Glossary On
Versions: 1 2 3 4 5 6 7 8 9 10 11 12 13 14 15 16 17 18 19 20 21 22 23 24 25 26 27 28 29 30 31 32 33 34 35 36 37 38 39 40 41 42 43 44 45 46 47 48 49 50
000
ASUS44 KSJT 300610
RWRSJT
WEST CENTRAL TEXAS REGIONAL WEATHER ROUNDUP
NATIONAL WEATHER SERVICE SAN ANGELO TX
100 AM CDT TUE JUN 30 2015

NOTE: "FAIR" INDICATES FEW OR NO CLOUDS BELOW 12,000 FEET WITH NO
SIGNIFICANT WEATHER AND/OR OBSTRUCTIONS TO VISIBILITY.

TXZ049-054-064>066-071>073-076>078-098-099-113-114-127-128-139-140-
154-155-168>170-300700
...LOCATIONS ACROSS WEST CENTRAL TEXAS...

CITY           SKY/WX    TMP DP  RH WIND       PRES   REMARKS
SAN ANGELO     TSTM      75  65  70 SE8G20    30.06R
ABILENE        MOCLDY    76  66  71 S13       30.05R
DYESS AFB      MOCLDY    76  68  75 S12G26    30.03S
JUNCTION       CLOUDY    79  64  60 CALM      30.05S
SWEETWATER     MOCLDY    77  61  59 SE15      30.07F
BROWNWOOD      CLOUDY    72  66  83 CALM      30.05R
COLEMAN        MOCLDY    72  64  77 CALM      30.04R
SONORA         MOCLDY    77  68  73 S5        30.11F
OZONA          FAIR      75  64  69 S7        30.10F
BRADY          CLEAR     77  64  65 N10       30.04R
$$

TEXAS PANHANDLE/OKLAHOMA PANHANDLE

CITY           SKY/WX    TMP DP  RH WIND       PRES   REMARKS
AMARILLO       CLEAR     68  56  65 SE12      30.17R
BORGER         CLEAR     73  56  54 S10       30.13R
CANADIAN       CLEAR     69  63  82 SW8       30.08S
DALHART        CLEAR     67  59  75 NW3       30.19R
DUMAS          CLEAR     68  62  80 CALM      30.16R
GUYMON         NOT AVBL
HEREFORD       CLEAR     66  61  82 MISG      30.17S
PAMPA          CLEAR     65  60  83 S10       30.14S
PERRYTON       CLEAR     68  61  78 S6        30.10S
$$

SOUTHERN PANHANDLE/SOUTH PLAINS/ROLLING PLAINS

CITY           SKY/WX    TMP DP  RH WIND       PRES   REMARKS
LUBBOCK        MOCLDY    70  62  76 NE13      30.12S
SNYDER         LGT RAIN  78  67  69 N12G17    30.05S
CHILDRESS      CLOUDY    68  63  84 S15       30.08R
SEMINOLE       CLOUDY    69  63  81 N5        30.11S
$$

PERMIAN BASIN

CITY           SKY/WX    TMP DP  RH WIND       PRES   REMARKS
MIDLAND        CLOUDY    82  63  52 S13       30.07R
ODESSA         CLOUDY    83  61  47 S14       30.08R
WINK           CLOUDY    74  65  73 S8        30.02S
$$

FAR WEST/SOUTHWEST MOUNTAINS/TRANS PECOS

CITY           SKY/WX    TMP DP  RH WIND       PRES   REMARKS
ALPINE         MOCLDY    73  63  71 S12       30.21F
DRYDEN           N/A     78  67  68 VRB5      30.03S
EL PASO        TSTM      75  58  55 NE15G25   30.14R
FORT STOCKTON  CLOUDY    77  66  68 SE18G25   30.07F
GUADALUPE PASS CLOUDY    69  57  65 NE18      30.27R
MARFA          MOCLDY   N/A N/A N/A N3        30.20F
PECOS          CLOUDY    79  55  42 S3        30.03F
$$

DALLAS/FORT WORTH METROPLEX

CITY           SKY/WX    TMP DP  RH WIND       PRES   REMARKS
DFW AIRPORT    MOCLDY    79  64  60 S6        29.99R
FTW MEACHAM    MOCLDY    79  63  57 CALM      29.99R
DAL-EXECUTIVE  PTCLDY    79  67  66 CALM      30.00R
GRAND PRAIRIE  PTCLDY    79  66  62 CALM      30.02R
ADDISON        PTCLDY    83  72  69 S3        30.01R
MESQUITE       PTCLDY    78  75  90 S5        29.99R
LANCASTER      CLEAR     78  72  82 CALM      30.01R
$$

NORTH CENTRAL TEXAS

CITY           SKY/WX    TMP DP  RH WIND       PRES   REMARKS
SHRMAN/DENISON CLOUDY    79  67  66 N18G24    30.05R
GAINESVILLE    MOCLDY    78  68  70 CALM      30.03R
BRIDGEPORT     MOCLDY    73  67  80 CALM      30.02R
DENTON         MOCLDY    77  65  66 SW3       29.99R
WAXAHACHIE     PTCLDY    76  70  82 S3        30.01R
GRANBURY       MOCLDY    73  65  74 CALM      30.02S
$$

WESTERN NORTH TEXAS

CITY           SKY/WX    TMP DP  RH WIND       PRES   REMARKS
WICHITA FALLS  CLOUDY    79  69  71 S10       30.00R
VERNON         CLOUDY    80  50  35 NE6G17    30.01R
BRECKENRIDGE   CLOUDY    76  64  66 S5        30.00F
COMANCHE       PTCLDY    72  68  87 CALM      30.04R
$$

CENTRAL AND SOUTH CENTRAL TEXAS

CITY           SKY/WX    TMP DP  RH WIND       PRES   REMARKS
AUSTIN/BERGSTM MOCLDY    77  74  90 S7        30.04R
WACO           PTCLDY    81  73  76 S13G21    30.00R
HILLSBORO      PTCLDY    74  69  86 SE3       30.01R
TEMPLE         CLEAR     79  72  78 S10       30.01S
KILLEEN-GRAY   CLEAR     78  73  85 S8        30.02S
FORT HOOD      CLEAR     79  72  81 S9        30.02R
GEORGETOWN     PTCLDY    81  73  78 S8        30.02S
LAGO VISTA     CLOUDY    79  74  84 S6        30.07R
SAN MARCOS     NOT AVBL
NEW BRAUNFELS  MOCLDY    78  75  90 S5        30.02R
RANDOLPH AFB   PTCLDY    77  74  90 SE5       30.04R
SAN ANTONIO    MOCLDY    80  73  79 S12       30.03R
STINSON        PTCLDY    78  74  87 S7        30.00R
PLEASANTON     NOT AVBL
LA GRANGE      MOCLDY    79  77  92 CALM      30.02R
GIDDINGS       MOCLDY    78  74  88 CALM      30.07S
$$

EAST TEXAS

CITY           SKY/WX    TMP DP  RH WIND       PRES   REMARKS
PARIS          CLOUDY    81  70  69 W15       29.97S
CLARKSVILLE    NOT AVBL
TYLER          PTCLDY    79  73  82 S7        30.00S
LONGVIEW       PTCLDY    77  73  87 S10       29.98F
PALESTINE      PTCLDY    79  74  85 S3        30.01S
NACOGDOCHES    MOCLDY   N/A N/A N/A CALM      30.02S
$$

TEXAS HILL COUNTRY AND EDWARDS PLATEAU

CITY           SKY/WX    TMP DP  RH WIND       PRES   REMARKS
LLANO          CLOUDY    81  70  69 SE6       30.05S
HORSESHOE BAY  FAIR      79  73  79 SE6       30.04S
KERRVILLE      CLOUDY    76  73  90 S5        30.06S
FREDERICKSBRG  CLOUDY    76  69  80 S6        30.05S
ROCKSPRINGS    PTCLDY    73  66  78 SE8       30.10F
HONDO          PTCLDY    77  74  90 SE9       30.04S
UVALDE         CLEAR     76  73  89 SE6       30.03R
DEL RIO        CLEAR     78  68  71 E8        30.00R
$$

SOUTHEAST TEXAS

CITY           SKY/WX    TMP DP  RH WIND       PRES   REMARKS
COLLEGE STN    PTCLDY    80  75  84 S8        30.02S
CALDWELL       PTCLDY    77  77 100 S7        30.06S
CROCKETT       NOT AVBL
BRENHAM        PTCLDY    79  77  93 CALM      30.04R
HUNTSVILLE     MOCLDY    80  75  84 S9G16     30.02S
CONROE         PTCLDY    79  74  84 S5        30.02F
HOUSTON BUSH   MOCLDY    81  75  82 S3        30.02F
HOUSTON HOBBY  MOCLDY    79  75  87 S3        30.03R
PERLAND        PTCLDY    80  75  84 CALM      30.05R
WHARTON        PTCLDY    75  74  96 SE6       30.04R
$$

THE UPPER TEXAS COAST

CITY           SKY/WX    TMP DP  RH WIND       PRES   REMARKS
ORANGE         PTCLDY    79  79 100 CALM      30.04F
PORT ARTHUR    CLEAR     78  76  93 MISG      30.02F
GALVESTON      PTCLDY    82  79  90 S12       30.04F
ANGLETON       PTCLDY    78  76  93 CALM      30.03R
BAY CITY       PTCLDY    79  78  96 CALM      30.03R
$$

TEXAS COASTAL BEND, RIO GRANDE PLAINS DEEP SOUTH TEXAS

CITY           SKY/WX    TMP DP  RH WIND       PRES   REMARKS
VICTORIA       CLEAR     77  76  96 S7        30.03R
BEEVILLE       FAIR     N/A N/A N/A SE5       30.03R
ROCKPORT       MOCLDY    84  77  79 S8G18     30.00F
PORT ARANSAS   MOCLDY    82  79  90 S12       30.01F
PORT LAVACA    PTCLDY    79  75  89 S3        30.03R
CORPUS CHRISTI CLOUDY    80  77  90 S9        30.01F
KINGSVILLE NAS PTCLDY    81  80  97 SE8       30.01S
COTULLA        CLEAR     81  74  79 SE13      30.01R
LAREDO         PTCLDY    82  72  72 SE10      30.02R
BROWNSVILLE    CLOUDY    78  73  84 S5        30.00F
PORT ISABEL    MOCLDY    82  79  90 SE12      30.00S
HEBBRONVILLE     N/A     77  74  91 SE7       30.03F FOG
MCALLEN        PTCLDY    80  70  71 SE12      29.99F
WESLACO        MOCLDY    78  72  81 SE7       29.99F
FALFURRIAS     CLEAR     79  76  91 E5        30.01S
EDINBURG       PTCLDY    80  72  76 S7        29.99F
$$



USA.gov is the U.S. government's official web portal to all federal, state and local government web resources and services.